Voltar ao catálogo

COSMOS 1275 DEB

AtivoPO
NORAD 13802·DEBRIS·🇷🇺 Russia

Lançado Jun 4, 1981 de Plesetsk Cosmodrome

Loading…

Próximas Passagens (próximas 24 horas)

TLE

AtualizadoSource: Space-Track

Época: Sep 14, 2026, 18:56 UTC

1 13802U 81053GW  26257.78925051  .00000548  00000-0  50805-3 0  9998
2 13802  82.8037  13.0880 0059012 331.0704 181.6661 13.79924835237786

Acompanhe COSMOS 1275 DEB em tempo real com AllMySat

Download on the App Store